START_TIME,STEP,MOV.,H8,t_acc.,H43,t_acc.,M25,t_acc.,H9,t_acc.
1979-07-01 09:00:30.470 ,0,0,0.,12.0,0.,12.0,0.,12.0,0.,12.0
1979-07-01 09:00:42.470 ,0,0,0.,12.0,0.,12.0,0.,12.0,0.,12.0
1979-07-01 09:00:54.470 ,0,0,0.,12.0,0.,12.0,0.,12.0,0.,12.0
1979-07-01 09:01:06.470 ,0,0,0.,12.0,0.,12.0,0.,12.0,0.,12.0
1979-07-01 09:01:18.470 ,0,0,0.,12.0,0.,12.0,0.,12.0,0.,12.0
1979-07-01 09:01:30.470 ,0,0,0.,12.0,0.,12.0,0.,12.0,0.,12.0
1979-07-01 09:01:42.470 ,1,0,0.,12.0,0.,12.0,0.,12.0,0.,12.0
1979-07-01 09:01:54.470 ,1,0,0.,12.0,0.,12.0,0.,12.0,0.,12.0
1979-07-01 09:02:06.470 ,1,0,0.,12.0,0.,12.0,0.,12.0,0.,12.0
1979-07-01 09:02:18.470 ,1,0,0.,12.0,0.,12.0,0.,12.0,0.,12.0
1979-07-01 09:02:30.470 ,2,0,0.,12.0,0.,12.0,0.,12.0,0.,12.0
1979-07-01 09:02:42.470 ,2,0,0.,12.0,0.,12.0,0.,12.0,0.,12.0
1979-07-01 09:02:54.470 ,2,0,0.,12.0,0.,12.0,0.,12.0,0.,12.0
1979-07-01 09:03:06.470 ,2,0,0.,12.0,0.,12.0,0.,12.0,0.,12.0
1979-07-01 09:03:18.470 ,3,0,0.,12.0,0.,12.0,0.,12.0,0.,12.0
1979-07-01 09:03:30.470 ,3,0,0.,12.0,0.,12.0,0.,12.0,0.,12.0
1979-07-01 09:03:42.470 ,3,0,0.,12.0,0.,12.0,0.,12.0,0.,12.0
1979-07-01 09:03:54.470 ,3,0,0.,12.0,0.,12.0,0.,12.0,0.,12.0
1979-07-01 09:04:06.470 ,4,0,0.,12.0,0.,12.0,0.,12.0,0.,12.0
1979-07-01 09:04:18.470 ,4,0,0.,12.0,0.,12.0,0.,12.0,0.,12.0
1979-07-01 09:04:30.470 ,0,0,0.,12.0,0.,12.0,0.,12.0,0.,12.0
1979-07-01 09:04:42.470 ,0,0,0.,12.0,0.,12.0,0.,12.0,0.,12.0
1979-07-01 09:04:54.470 ,5,0,0.,12.0,0.,12.0,0.,12.0,0.,12.0
1979-07-01 09:05:06.470 ,5,0,0.,12.0,0.,12.0,0.,12.0,0.,12.0
1979-07-01 09:05:18.470 ,5,0,0.,12.0,0.,12.0,0.,12.0,0.,12.0
1979-07-01 09:05:30.470 ,5,0,0.,12.0,0.,12.0,0.,12.0,0.,12.0
1979-07-01 09:05:42.470 ,6,0,0.,12.0,0.,12.0,0.,12.0,0.,12.0
1979-07-01 09:05:54.470 ,6,0,0.,12.0,0.,12.0,0.,12.0,0.,12.0
1979-07-01 09:06:06.470 ,6,0,0.,12.0,0.,12.0,0.,12.0,0.,12.0
1979-07-01 09:06:18.470 ,6,0,0.,12.0,0.,12.0,0.,12.0,0.,12.0
1979-07-01 09:06:30.470 ,7,0,0.,12.0,0.,12.0,0.,12.0,0.,12.0
1979-07-01 09:06:42.470 ,7,0,0.,12.0,0.,12.0,0.,12.0,0.,12.0
1979-07-01 09:06:54.470 ,7,0,0.,12.0,0.,12.0,0.,12.0,0.,12.0
1979-07-01 09:07:06.470 ,7,0,0.,12.0,0.,12.0,0.,12.0,0.,12.0
1979-07-01 09:07:18.470 ,3,1,0.,12.0,0.,12.0,0.,12.0,0.,12.0
1979-07-01 09:07:30.470 ,3,1,0.,12.0,0.,12.0,0.,12.0,0.,12.0
1979-07-01 09:07:42.470 ,0,1,0.,12.0,0.,12.0,0.,12.0,0.,12.0
1979-07-01 09:07:54.470 ,0,1,0.,12.0,0.,12.0,0.,12.0,0.,12.0
1979-07-01 09:08:06.470 ,4,1,0.,12.0,0.,12.0,0.,12.0,0.,12.0
1979-07-01 09:08:18.470 ,4,1,0.,12.0,0.,12.0,0.,12.0,0.,12.0
1979-07-01 09:08:30.470 ,7,1,0.,12.0,0.,12.0,0.,12.0,0.,12.0
1979-07-01 09:08:42.470 ,7,1,0.,12.0,0.,12.0,0.,12.0,0.,12.0
1979-07-01 09:09:42.470 ,0,0,0.,12.0,0.,12.0,0.,12.0,0.,12.0
1979-07-01 09:09:54.470 ,0,0,0.,12.0,0.,12.0,0.,12.0,0.,12.0
1979-07-01 09:10:06.470 ,7,1,0.,12.0,0.,12.0,0.,12.0,0.,12.0
1979-07-01 09:10:18.470 ,7,1,0.,12.0,0.,12.0,0.,12.0,0.,12.0
1979-07-01 09:10:30.470 ,3,1,0.,12.0,0.,12.0,0.,12.0,0.,12.0
1979-07-01 09:10:42.470 ,3,1,0.,12.0,0.,12.0,0.,12.0,0.,12.0
1979-07-01 09:10:54.470 ,0,1,0.,12.0,0.,12.0,0.,12.0,0.,12.0
1979-07-01 09:11:06.470 ,0,1,0.,12.0,0.,12.0,0.,12.0,0.,12.0
1979-07-01 09:11:18.470 ,4,1,0.,12.0,0.,12.0,0.,12.0,0.,12.0
1979-07-01 09:11:30.470 ,4,1,0.,12.0,0.,12.0,0.,12.0,0.,12.0
1979-07-01 09:11:42.470 ,7,1,0.,12.0,0.,12.0,0.,12.0,0.,12.0
1979-07-01 09:11:54.470 ,7,1,0.,12.0,0.,12.0,0.,12.0,0.,12.0
1979-07-01 09:12:06.470 ,3,1,0.,12.0,0.,12.0,0.,12.0,0.,12.0
1979-07-01 09:12:18.470 ,3,1,0.,12.0,0.,12.0,0.,12.0,0.,12.0
1979-07-01 09:12:30.470 ,0,1,0.,12.0,0.,12.0,0.,12.0,0.,12.0
1979-07-01 09:12:42.470 ,0,1,0.,12.0,0.,12.0,0.,12.0,0.,12.0
1979-07-01 09:12:54.470 ,4,1,0.,12.0,0.,12.0,0.,12.0,0.,12.0
1979-07-01 09:13:06.470 ,4,1,0.,12.0,0.,12.0,0.,12.0,0.,12.0
1979-07-01 09:13:18.470 ,7,1,0.,12.0,0.,12.0,0.,12.0,0.,12.0
1979-07-01 09:13:30.470 ,7,1,0.,12.0,0.,12.0,0.,12.0,0.,12.0
1979-07-01 09:13:42.470 ,3,1,0.,12.0,0.,12.0,0.,12.0,0.,12.0
1979-07-01 09:13:54.470 ,3,1,0.,12.0,0.,12.0,0.,12.0,0.,12.0
1979-07-01 09:14:06.470 ,0,1,0.,12.0,0.,12.0,0.,12.0,0.,12.0
1979-07-01 09:14:18.470 ,0,1,0.,12.0,0.,12.0,0.,12.0,0.,12.0
1979-07-01 09:14:30.470 ,4,1,0.,12.0,0.,12.0,0.,12.0,0.,12.0
1979-07-01 09:14:42.470 ,4,1,0.,12.0,0.,12.0,0.,12.0,0.,12.0
1979-07-01 09:14:54.470 ,7,1,0.,12.0,0.,12.0,0.,12.0,0.,12.0
1979-07-01 09:15:06.470 ,7,1,0.,12.0,0.,12.0,0.,12.0,0.,12.0
1979-07-01 09:15:18.470 ,3,1,0.,12.0,0.,12.0,0.,12.0,0.,12.0
1979-07-01 09:15:30.470 ,3,1,0.,12.0,0.,12.0,0.,12.0,0.,12.0
1979-07-01 09:15:42.470 ,0,1,0.,12.0,0.,12.0,0.,12.0,0.,12.0
1979-07-01 09:15:54.470 ,0,1,0.,12.0,0.,12.0,0.,12.0,0.,12.0
1979-07-01 09:16:06.470 ,4,1,0.,12.0,0.,12.0,0.,12.0,0.,12.0
1979-07-01 09:16:18.470 ,4,1,0.,12.0,0.,12.0,0.,12.0,0.,12.0
1979-07-01 09:16:30.470 ,7,1,0.,12.0,0.,12.0,0.,12.0,0.,12.0
1979-07-01 09:16:42.470 ,7,1,0.,12.0,0.,12.0,0.,12.0,0.,12.0
1979-07-01 09:16:54.470 ,3,1,0.,12.0,0.,12.0,0.,12.0,0.,12.0
1979-07-01 09:17:06.470 ,3,1,0.,12.0,0.,12.0,0.,12.0,0.,12.0
1979-07-01 09:17:18.470 ,0,1,0.,12.0,0.,12.0,0.,12.0,0.,12.0
1979-07-01 09:17:30.470 ,0,1,0.,12.0,0.,12.0,0.,12.0,0.,12.0
1979-07-01 09:17:42.470 ,0,0,0.,12.0,0.,12.0,0.,12.0,0.,12.0
1979-07-01 09:17:54.470 ,0,0,0.,12.0,0.,12.0,0.,12.0,0.,12.0
1979-07-01 09:18:06.470 ,0,0,0.,12.0,0.,12.0,0.,12.0,0.,12.0
1979-07-01 09:18:18.470 ,0,0,0.,12.0,0.,12.0,0.,12.0,0.,12.0
1979-07-01 09:18:30.470 ,5,0,0.,12.0,0.,12.0,0.,12.0,0.,12.0
1979-07-01 09:18:42.470 ,5,0,0.,12.0,0.,12.0,0.,12.0,0.,12.0
1979-07-01 09:18:54.470 ,5,0,0.,12.0,0.,12.0,0.,12.0,0.,12.0
1979-07-01 09:19:06.470 ,5,0,0.,12.0,0.,12.0,0.,12.0,0.,12.0
1979-07-01 09:19:18.470 ,4,0,0.,12.0,0.,12.0,0.,12.0,0.,12.0
1979-07-01 09:19:30.470 ,4,0,0.,12.0,0.,12.0,0.,12.0,0.,12.0
1979-07-01 09:19:42.470 ,4,0,0.,12.0,0.,12.0,0.,12.0,0.,12.0
1979-07-01 09:19:54.470 ,4,0,0.,12.0,0.,12.0,0.,12.0,0.,12.0
1979-07-01 09:20:06.470 ,3,0,0.,12.0,0.,12.0,0.,12.0,0.,12.0
1979-07-01 09:20:18.470 ,3,0,0.,12.0,0.,12.0,0.,12.0,0.,12.0
1979-07-01 09:20:30.470 ,3,0,0.,12.0,0.,12.0,0.,12.0,0.,12.0
1979-07-01 09:20:42.470 ,3,0,0.,12.0,0.,12.0,0.,12.0,0.,12.0
1979-07-01 09:20:54.470 ,2,0,,0,,0,,0,,0
1979-07-01 09:21:06.470 ,2,0,0.,12.0,0.,12.0,0.,12.0,0.,12.0
1979-07-01 09:21:18.470 ,2,0,0.,12.0,0.,12.0,0.,12.0,0.,12.0
1979-07-01 09:21:30.470 ,2,0,0.,12.0,0.,12.0,0.,12.0,0.,12.0
1979-07-01 09:21:42.470 ,1,0,0.,12.0,0.,12.0,0.,12.0,0.,12.0
1979-07-01 09:21:54.470 ,1,0,0.,12.0,0.,12.0,0.,12.0,0.,12.0
1979-07-01 09:22:06.470 ,1,0,0.,12.0,0.,12.0,0.,12.0,0.,12.0
1979-07-01 09:22:18.470 ,1,0,0.,12.0,0.,12.0,0.,12.0,0.,12.0
1979-07-01 09:22:30.470 ,0,0,0.,12.0,0.,12.0,0.,12.0,0.,12.0
1979-07-01 09:22:42.470 ,0,0,0.,12.0,0.,12.0,0.,12.0,0.,12.0
1979-07-01 09:22:54.470 ,0,0,0.,12.0,0.,12.0,0.,12.0,0.,12.0
1979-07-01 09:23:06.470 ,0,0,0.,12.0,0.,12.0,0.,12.0,0.,12.0
1979-07-01 09:23:18.470 ,0,0,0.,12.0,0.,12.0,0.,12.0,0.,12.0
1979-07-01 09:23:30.470 ,0,0,0.,12.0,0.,12.0,0.,12.0,0.,12.0
1979-07-01 09:23:42.470 ,0,0,0.,12.0,0.,12.0,0.,12.0,0.,12.0
1979-07-01 09:23:54.470 ,0,0,0.,12.0,0.,12.0,0.,12.0,0.,12.0
1979-07-01 09:24:06.470 ,1,0,0.,12.0,0.,12.0,0.,12.0,0.,12.0
1979-07-01 09:24:18.470 ,1,0,0.,12.0,0.,12.0,0.,12.0,0.,12.0
1979-07-01 09:24:30.470 ,1,0,0.,12.0,0.,12.0,0.,12.0,0.,12.0
1979-07-01 09:24:42.470 ,1,0,0.,12.0,0.,12.0,0.,12.0,0.,12.0
1979-07-01 09:24:54.470 ,2,0,0.,12.0,0.,12.0,0.,12.0,0.,12.0
1979-07-01 09:25:06.470 ,2,0,0.,12.0,0.,12.0,0.,12.0,0.,12.0
1979-07-01 09:25:18.470 ,2,0,0.,12.0,0.,12.0,0.,12.0,0.,12.0
1979-07-01 09:25:30.470 ,2,0,0.,12.0,0.,12.0,0.,12.0,0.,12.0
1979-07-01 09:25:42.470 ,3,0,0.,12.0,0.,12.0,0.,12.0,0.,12.0
1979-07-01 09:25:54.470 ,3,0,0.,12.0,0.,12.0,0.,12.0,0.,12.0
1979-07-01 09:26:06.470 ,3,0,0.,12.0,0.,12.0,0.,12.0,0.,12.0
1979-07-01 09:26:18.470 ,3,0,0.,12.0,0.,12.0,0.,12.0,0.,12.0
1979-07-01 09:26:30.470 ,4,0,0.,12.0,0.,12.0,0.,12.0,0.,12.0
1979-07-01 09:26:42.470 ,4,0,0.,12.0,0.,12.0,0.,12.0,0.,12.0
1979-07-01 09:26:54.470 ,4,0,0.,12.0,0.,12.0,0.,12.0,0.,12.0
1979-07-01 09:27:06.470 ,4,0,0.,12.0,0.,12.0,0.,12.0,0.,12.0
1979-07-01 09:27:18.470 ,5,0,0.,12.0,0.,12.0,0.,12.0,0.,12.0
1979-07-01 09:27:30.470 ,5,0,0.,12.0,0.,12.0,0.,12.0,0.,12.0
1979-07-01 09:27:42.470 ,5,0,0.,12.0,0.,12.0,0.,12.0,0.,12.0
1979-07-01 09:27:54.470 ,5,0,0.,12.0,0.,12.0,0.,12.0,0.,12.0
1979-07-01 09:28:06.470 ,6,0,0.,12.0,0.,12.0,0.,12.0,0.,12.0
1979-07-01 09:28:18.470 ,6,0,0.,12.0,0.,12.0,0.,12.0,0.,12.0
1979-07-01 09:28:30.470 ,6,0,0.,12.0,0.,12.0,0.,12.0,0.,12.0
1979-07-01 09:28:42.470 ,6,0,0.,12.0,0.,12.0,0.,12.0,0.,12.0
1979-07-01 09:28:54.470 ,7,0,0.,12.0,0.,12.0,0.,12.0,0.,12.0
1979-07-01 09:29:06.470 ,7,0,0.,12.0,0.,12.0,0.,12.0,0.,12.0
1979-07-01 09:29:18.470 ,7,0,0.,12.0,0.,12.0,0.,12.0,0.,12.0
1979-07-01 09:29:30.470 ,7,0,0.,12.0,0.,12.0,0.,12.0,0.,12.0
1979-07-01 09:29:42.470 ,7,0,0.,12.0,0.,12.0,0.,12.0,0.,12.0
1979-07-01 09:29:54.470 ,7,0,0.,12.0,0.,12.0,0.,12.0,0.,12.0
1979-07-01 09:30:06.470 ,7,0,0.,12.0,0.,12.0,0.,12.0,0.,12.0
1979-07-01 09:30:18.470 ,7,0,0.,12.0,0.,12.0,0.,12.0,0.,12.0
1979-07-01 09:30:30.470 ,6,0,0.,12.0,0.,12.0,0.,12.0,0.,12.0
1979-07-01 09:30:42.470 ,6,0,0.,12.0,0.,12.0,0.,12.0,0.,12.0
1979-07-01 09:30:54.470 ,6,0,0.,12.0,0.,12.0,0.,12.0,0.,12.0
1979-07-01 09:31:06.470 ,6,0,0.,12.0,0.,12.0,0.,12.0,0.,12.0
1979-07-01 09:31:18.470 ,5,0,0.,12.0,0.,12.0,0.,12.0,0.,12.0
1979-07-01 09:31:30.470 ,5,0,0.,12.0,0.,12.0,0.,12.0,0.,12.0
1979-07-01 09:31:42.470 ,5,0,0.,12.0,0.,12.0,0.,12.0,0.,12.0
1979-07-01 09:31:54.470 ,5,0,0.,12.0,0.,12.0,0.,12.0,0.,12.0
1979-07-01 09:32:06.470 ,4,0,0.,12.0,0.,12.0,0.,12.0,0.,12.0
1979-07-01 09:32:18.470 ,4,0,0.,12.0,0.,12.0,0.,12.0,0.,12.0
1979-07-01 09:32:30.470 ,4,0,0.,12.0,0.,12.0,0.,12.0,0.,12.0
1979-07-01 09:32:42.470 ,4,0,0.,12.0,0.,12.0,0.,12.0,0.,12.0
1979-07-01 09:32:54.470 ,3,0,0.,12.0,0.,12.0,0.,12.0,0.,12.0
1979-07-01 09:33:06.470 ,3,0,0.,12.0,0.,12.0,0.,12.0,0.,12.0
1979-07-01 09:33:18.470 ,3,0,0.,12.0,0.,12.0,0.,12.0,0.,12.0
1979-07-01 09:33:30.470 ,3,0,0.,12.0,0.,12.0,0.,12.0,0.,12.0
1979-07-01 09:33:42.470 ,2,0,0.,12.0,0.,12.0,0.,12.0,0.,12.0
1979-07-01 09:33:54.470 ,2,0,0.,12.0,0.,12.0,0.,12.0,0.,12.0
1979-07-01 09:34:06.470 ,2,0,0.,12.0,0.,12.0,0.,12.0,0.,12.0
1979-07-01 09:34:18.470 ,2,0,0.,12.0,0.,12.0,0.,12.0,0.,12.0
1979-07-01 09:34:30.470 ,1,0,0.,12.0,0.,12.0,0.,12.0,0.,12.0
1979-07-01 09:34:42.470 ,1,0,0.,12.0,0.,12.0,0.,12.0,0.,12.0
1979-07-01 09:34:54.470 ,1,0,0.,12.0,0.,12.0,0.,12.0,0.,12.0
1979-07-01 09:35:06.470 ,1,0,0.,12.0,0.,12.0,0.,12.0,0.,12.0
1979-07-01 09:35:18.470 ,0,0,0.,12.0,0.,12.0,0.,12.0,0.,12.0
1979-07-01 09:35:30.470 ,0,0,0.,12.0,0.,12.0,0.,12.0,0.,12.0
1979-07-01 09:35:42.470 ,0,0,0.,12.0,0.,12.0,0.,12.0,0.,12.0
1979-07-01 09:35:54.470 ,0,0,0.,12.0,0.,12.0,0.,12.0,0.,12.0
1979-07-01 09:36:06.470 ,0,0,0.,12.0,0.,12.0,0.,12.0,0.,12.0
1979-07-01 09:36:18.470 ,0,0,1.,12.0,0.,12.0,0.,12.0,0.,12.0
1979-07-01 09:36:30.470 ,0,0,0.,12.0,0.,12.0,0.,12.0,0.,12.0
1979-07-01 09:36:42.470 ,0,0,0.,12.0,0.,12.0,0.,12.0,0.,12.0
1979-07-01 09:36:54.470 ,1,0,0.,12.0,0.,12.0,0.,12.0,0.,12.0
1979-07-01 09:37:06.470 ,1,0,0.,12.0,0.,12.0,0.,12.0,0.,12.0
1979-07-01 09:37:18.470 ,1,0,0.,12.0,0.,12.0,0.,12.0,0.,12.0
1979-07-01 09:37:30.470 ,1,0,0.,12.0,0.,12.0,0.,12.0,0.,12.0
1979-07-01 09:37:42.470 ,2,0,0.,12.0,0.,12.0,0.,12.0,0.,12.0
1979-07-01 09:37:54.470 ,2,0,0.,12.0,0.,12.0,0.,12.0,0.,12.0
1979-07-01 09:38:06.470 ,2,0,0.,12.0,0.,12.0,0.,12.0,0.,12.0
1979-07-01 09:38:18.470 ,2,0,0.,12.0,0.,12.0,0.,12.0,0.,12.0
1979-07-01 09:38:30.470 ,3,0,0.,12.0,0.,12.0,0.,12.0,0.,12.0
1979-07-01 09:38:42.470 ,3,0,0.,12.0,0.,12.0,0.,12.0,0.,12.0
1979-07-01 09:38:54.470 ,3,0,0.,12.0,0.,12.0,0.,12.0,0.,12.0
1979-07-01 09:39:06.470 ,3,0,0.,12.0,0.,12.0,0.,12.0,0.,12.0
1979-07-01 09:39:18.470 ,4,0,1.,12.0,0.,12.0,0.,12.0,0.,12.0
1979-07-01 09:39:30.470 ,4,0,0.,12.0,0.,12.0,0.,12.0,0.,12.0
1979-07-01 09:39:42.470 ,4,0,0.,12.0,0.,12.0,0.,12.0,0.,12.0
1979-07-01 09:39:54.470 ,4,0,0.,12.0,0.,12.0,0.,12.0,0.,12.0
1979-07-01 09:40:06.470 ,5,0,0.,12.0,0.,12.0,0.,12.0,0.,12.0
1979-07-01 09:40:18.470 ,5,0,0.,12.0,0.,12.0,0.,12.0,0.,12.0
1979-07-01 09:40:30.470 ,5,0,0.,12.0,0.,12.0,0.,12.0,0.,12.0
1979-07-01 09:40:42.470 ,5,0,0.,12.0,0.,12.0,0.,12.0,0.,12.0
1979-07-01 09:40:54.470 ,6,0,0.,12.0,0.,12.0,0.,12.0,0.,12.0
1979-07-01 09:41:06.470 ,6,0,0.,12.0,0.,12.0,0.,12.0,0.,12.0
1979-07-01 09:41:18.470 ,6,0,0.,12.0,0.,12.0,0.,12.0,0.,12.0
1979-07-01 09:41:30.470 ,6,0,0.,12.0,0.,12.0,0.,12.0,0.,12.0
1979-07-01 09:41:42.470 ,7,0,0.,12.0,0.,12.0,0.,12.0,0.,12.0
1979-07-01 09:41:54.470 ,7,0,0.,12.0,0.,12.0,0.,12.0,0.,12.0
1979-07-01 09:42:06.470 ,7,0,0.,12.0,0.,12.0,0.,12.0,0.,12.0
1979-07-01 09:42:18.470 ,7,0,0.,12.0,0.,12.0,0.,12.0,0.,12.0
1979-07-01 09:42:30.470 ,7,0,0.,12.0,0.,12.0,0.,12.0,0.,12.0
1979-07-01 09:42:42.470 ,7,0,0.,12.0,0.,12.0,0.,12.0,0.,12.0
1979-07-01 09:42:54.470 ,7,0,0.,12.0,0.,12.0,0.,12.0,0.,12.0
1979-07-01 09:43:06.470 ,7,0,0.,12.0,0.,12.0,0.,12.0,0.,12.0
1979-07-01 09:43:18.470 ,6,0,0.,12.0,0.,12.0,0.,12.0,0.,12.0
1979-07-01 09:43:30.470 ,6,0,0.,12.0,0.,12.0,0.,12.0,0.,12.0
1979-07-01 09:43:42.470 ,6,0,0.,12.0,0.,12.0,0.,12.0,0.,12.0
1979-07-01 09:43:54.470 ,6,0,1.,12.0,0.,12.0,0.,12.0,0.,12.0
1979-07-01 09:44:06.470 ,5,0,0.,12.0,0.,12.0,0.,12.0,0.,12.0
1979-07-01 09:44:18.470 ,5,0,0.,12.0,0.,12.0,0.,12.0,0.,12.0
1979-07-01 09:44:30.470 ,5,0,0.,12.0,0.,12.0,0.,12.0,0.,12.0
1979-07-01 09:44:42.470 ,5,0,0.,12.0,0.,12.0,0.,12.0,0.,12.0
1979-07-01 09:44:54.470 ,4,0,0.,12.0,0.,12.0,0.,12.0,0.,12.0
1979-07-01 09:45:06.470 ,4,0,0.,12.0,0.,12.0,0.,12.0,0.,12.0
1979-07-01 09:45:18.470 ,4,0,0.,12.0,0.,12.0,0.,12.0,0.,12.0
1979-07-01 09:45:30.470 ,4,0,0.,12.0,0.,12.0,0.,12.0,0.,12.0
1979-07-01 09:45:42.470 ,3,0,0.,12.0,0.,12.0,0.,12.0,0.,12.0
1979-07-01 09:45:54.470 ,3,0,0.,12.0,0.,12.0,0.,12.0,0.,12.0
1979-07-01 09:46:06.470 ,3,0,0.,12.0,0.,12.0,0.,12.0,0.,12.0
1979-07-01 09:46:18.470 ,3,0,0.,12.0,0.,12.0,0.,12.0,0.,12.0
1979-07-01 09:46:30.470 ,2,0,0.,12.0,0.,12.0,0.,12.0,0.,12.0
1979-07-01 09:46:42.470 ,2,0,0.,12.0,0.,12.0,0.,12.0,0.,12.0
1979-07-01 09:46:54.470 ,2,0,0.,12.0,0.,12.0,0.,12.0,0.,12.0
1979-07-01 09:47:06.470 ,2,0,0.,12.0,0.,12.0,0.,12.0,0.,12.0
1979-07-01 09:47:18.470 ,1,0,0.,12.0,0.,12.0,0.,12.0,0.,12.0
1979-07-01 09:47:30.470 ,1,0,0.,12.0,0.,12.0,0.,12.0,0.,12.0
1979-07-01 09:47:42.470 ,1,0,0.,12.0,0.,12.0,0.,12.0,0.,12.0
1979-07-01 09:47:54.470 ,1,0,0.,12.0,0.,12.0,0.,12.0,0.,12.0
1979-07-01 09:48:06.470 ,0,0,0.,12.0,0.,12.0,0.,12.0,0.,12.0
1979-07-01 09:48:18.470 ,0,0,0.,12.0,0.,12.0,0.,12.0,0.,12.0
1979-07-01 09:48:30.470 ,0,0,0.,12.0,0.,12.0,0.,12.0,0.,12.0
1979-07-01 09:48:42.470 ,0,0,0.,12.0,0.,12.0,0.,12.0,0.,12.0
1979-07-01 09:48:54.470 ,0,0,0.,12.0,0.,12.0,0.,12.0,0.,12.0
1979-07-01 09:49:06.470 ,0,0,0.,12.0,0.,12.0,0.,12.0,0.,12.0
1979-07-01 09:49:18.470 ,0,0,0.,12.0,0.,12.0,0.,12.0,0.,12.0
1979-07-01 09:49:30.470 ,0,0,0.,12.0,0.,12.0,0.,12.0,0.,12.0
1979-07-01 09:49:42.470 ,1,0,0.,12.0,0.,12.0,0.,12.0,0.,12.0
1979-07-01 09:49:54.470 ,1,0,0.,12.0,0.,12.0,0.,12.0,0.,12.0
1979-07-01 09:50:06.470 ,1,0,0.,12.0,0.,12.0,0.,12.0,0.,12.0
1979-07-01 09:50:18.470 ,1,0,0.,12.0,0.,12.0,0.,12.0,0.,12.0
1979-07-01 09:50:30.470 ,2,0,0.,12.0,0.,12.0,0.,12.0,0.,12.0
1979-07-01 09:50:42.470 ,2,0,0.,12.0,0.,12.0,0.,12.0,0.,12.0
1979-07-01 09:50:54.470 ,2,0,0.,12.0,0.,12.0,0.,12.0,0.,12.0
1979-07-01 09:51:06.470 ,2,0,0.,12.0,0.,12.0,0.,12.0,0.,12.0
1979-07-01 09:51:18.470 ,3,0,0.,12.0,0.,12.0,0.,12.0,0.,12.0
1979-07-01 09:51:30.470 ,3,0,0.,12.0,0.,12.0,0.,12.0,0.,12.0
1979-07-01 09:51:42.470 ,3,0,0.,12.0,0.,12.0,0.,12.0,0.,12.0
1979-07-01 09:51:54.470 ,3,0,0.,12.0,0.,12.0,0.,12.0,0.,12.0
1979-07-01 09:52:06.470 ,4,0,0.,12.0,0.,12.0,0.,12.0,0.,12.0
1979-07-01 09:52:18.470 ,4,0,0.,12.0,0.,12.0,0.,12.0,0.,12.0
1979-07-01 09:52:30.470 ,4,0,0.,12.0,0.,12.0,0.,12.0,0.,12.0
1979-07-01 09:52:42.470 ,4,0,0.,12.0,0.,12.0,0.,12.0,0.,12.0
1979-07-01 09:52:54.470 ,5,0,0.,12.0,0.,12.0,0.,12.0,0.,12.0
1979-07-01 09:53:06.470 ,5,0,0.,12.0,0.,12.0,0.,12.0,0.,12.0
1979-07-01 09:53:18.470 ,5,0,0.,12.0,0.,12.0,0.,12.0,0.,12.0
1979-07-01 09:53:30.470 ,5,0,0.,12.0,0.,12.0,0.,12.0,0.,12.0
1979-07-01 09:53:42.470 ,6,0,0.,12.0,0.,12.0,0.,12.0,0.,12.0
1979-07-01 09:53:54.470 ,6,0,0.,12.0,0.,12.0,0.,12.0,0.,12.0
1979-07-01 09:54:06.470 ,6,0,0.,12.0,0.,12.0,0.,12.0,0.,12.0
1979-07-01 09:54:18.470 ,6,0,0.,12.0,0.,12.0,0.,12.0,0.,12.0
1979-07-01 09:54:30.470 ,7,0,0.,12.0,0.,12.0,0.,12.0,0.,12.0
1979-07-01 09:54:42.470 ,7,0,0.,12.0,0.,12.0,0.,12.0,0.,12.0
1979-07-01 09:54:54.470 ,7,0,0.,12.0,0.,12.0,0.,12.0,0.,12.0
1979-07-01 09:55:06.470 ,7,0,0.,12.0,0.,12.0,0.,12.0,0.,12.0
1979-07-01 09:55:18.470 ,0,0,0.,12.0,0.,12.0,0.,12.0,0.,12.0
1979-07-01 09:55:30.470 ,0,0,0.,12.0,0.,12.0,0.,12.0,0.,12.0
1979-07-01 09:55:42.470 ,0,1,0.,12.0,0.,12.0,0.,12.0,0.,12.0
1979-07-01 09:55:54.470 ,0,1,0.,12.0,0.,12.0,0.,12.0,0.,12.0
1979-07-01 09:56:06.470 ,4,1,0.,12.0,0.,12.0,0.,12.0,0.,12.0
1979-07-01 09:56:18.470 ,4,1,0.,12.0,0.,12.0,0.,12.0,0.,12.0
1979-07-01 09:56:30.470 ,7,1,0.,12.0,0.,12.0,0.,12.0,0.,12.0
1979-07-01 09:56:42.470 ,7,1,0.,12.0,0.,12.0,0.,12.0,0.,12.0
1979-07-01 09:56:54.470 ,3,1,0.,12.0,0.,12.0,0.,12.0,0.,12.0
1979-07-01 09:57:06.470 ,3,1,0.,12.0,0.,12.0,0.,12.0,0.,12.0
1979-07-01 09:57:18.470 ,0,1,0.,12.0,0.,12.0,0.,12.0,0.,12.0
1979-07-01 09:57:30.470 ,0,1,0.,12.0,0.,12.0,0.,12.0,0.,12.0
1979-07-01 09:57:42.470 ,4,1,0.,12.0,0.,12.0,0.,12.0,0.,12.0
1979-07-01 09:57:54.470 ,4,1,0.,12.0,0.,12.0,0.,12.0,0.,12.0
1979-07-01 09:58:06.470 ,7,1,0.,12.0,0.,12.0,0.,12.0,0.,12.0
1979-07-01 09:58:18.470 ,7,1,0.,12.0,0.,12.0,0.,12.0,0.,12.0
1979-07-01 09:58:30.470 ,3,1,0.,12.0,0.,12.0,0.,12.0,0.,12.0
1979-07-01 09:58:42.470 ,3,1,0.,12.0,0.,12.0,0.,12.0,0.,12.0
1979-07-01 09:58:54.470 ,0,1,0.,12.0,0.,12.0,0.,12.0,0.,12.0
1979-07-01 09:59:06.470 ,0,1,0.,12.0,0.,12.0,0.,12.0,0.,12.0
1979-07-01 09:59:18.470 ,4,1,0.,12.0,0.,12.0,0.,12.0,0.,12.0
1979-07-01 09:59:30.470 ,4,1,0.,12.0,0.,12.0,0.,12.0,0.,12.0
1979-07-01 09:59:42.470 ,7,1,0.,12.0,0.,12.0,0.,12.0,0.,12.0
1979-07-01 09:59:54.470 ,7,1,0.,12.0,0.,12.0,0.,12.0,0.,12.0
1979-07-01 10:00:06.470 ,3,1,0.,12.0,0.,12.0,0.,12.0,0.,12.0
1979-07-01 10:00:18.470 ,3,1,0.,12.0,0.,12.0,0.,12.0,0.,12.0
1979-07-01 10:00:30.470 ,0,1,0.,12.0,0.,12.0,0.,12.0,0.,12.0
1979-07-01 10:00:42.470 ,0,1,0.,12.0,0.,12.0,0.,12.0,0.,12.0
1979-07-01 10:00:54.470 ,4,1,0.,12.0,0.,12.0,0.,12.0,0.,12.0
1979-07-01 10:01:06.470 ,4,1,0.,12.0,0.,12.0,0.,12.0,0.,12.0
1979-07-01 10:01:18.470 ,7,1,0.,12.0,0.,12.0,0.,12.0,0.,12.0
1979-07-01 10:01:30.470 ,7,1,0.,12.0,0.,12.0,0.,12.0,0.,12.0
1979-07-01 10:01:42.470 ,3,1,0.,12.0,0.,12.0,0.,12.0,0.,12.0
1979-07-01 10:01:54.470 ,3,1,0.,12.0,0.,12.0,0.,12.0,0.,12.0
1979-07-01 10:02:06.470 ,0,1,0.,12.0,0.,12.0,0.,12.0,0.,12.0
1979-07-01 10:02:18.470 ,0,1,0.,12.0,0.,12.0,0.,12.0,0.,12.0
1979-07-01 10:02:30.470 ,4,1,0.,12.0,0.,12.0,0.,12.0,0.,12.0
1979-07-01 10:02:42.470 ,4,1,0.,12.0,0.,12.0,0.,12.0,0.,12.0
1979-07-01 10:02:54.470 ,7,1,0.,12.0,0.,12.0,0.,12.0,0.,12.0
1979-07-01 10:03:06.470 ,7,1,0.,12.0,0.,12.0,0.,12.0,0.,12.0
1979-07-01 10:03:18.470 ,3,1,0.,12.0,0.,12.0,0.,12.0,0.,12.0
1979-07-01 10:03:30.470 ,3,1,0.,12.0,0.,12.0,0.,12.0,0.,12.0
1979-07-01 10:03:42.470 ,0,1,0.,12.0,0.,12.0,0.,12.0,0.,12.0
1979-07-01 10:03:54.470 ,0,1,0.,12.0,0.,12.0,0.,12.0,0.,12.0
1979-07-01 10:04:06.470 ,4,1,0.,12.0,0.,12.0,0.,12.0,0.,12.0
1979-07-01 10:04:18.470 ,4,1,0.,12.0,0.,12.0,0.,12.0,0.,12.0
1979-07-01 10:04:30.470 ,7,1,0.,12.0,0.,12.0,0.,12.0,0.,12.0
1979-07-01 10:04:42.470 ,7,1,0.,12.0,0.,12.0,0.,12.0,0.,12.0
1979-07-01 10:04:54.470 ,3,1,0.,12.0,0.,12.0,0.,12.0,0.,12.0
1979-07-01 10:05:06.470 ,3,1,0.,12.0,0.,12.0,0.,12.0,0.,12.0
1979-07-01 10:05:18.470 ,0,1,0.,12.0,0.,12.0,0.,12.0,0.,12.0
1979-07-01 10:05:30.470 ,0,1,0.,12.0,0.,12.0,0.,12.0,0.,12.0
1979-07-01 10:05:42.470 ,0,0,0.,12.0,0.,12.0,0.,12.0,0.,12.0
1979-07-01 10:05:54.470 ,0,0,0.,12.0,0.,12.0,0.,12.0,0.,12.0
1979-07-01 10:06:06.470 ,0,0,0.,12.0,0.,12.0,0.,12.0,0.,12.0
1979-07-01 10:06:18.470 ,0,0,0.,12.0,0.,12.0,0.,12.0,0.,12.0
1979-07-01 10:06:30.470 ,5,0,0.,12.0,0.,12.0,0.,12.0,0.,12.0
1979-07-01 10:06:42.470 ,5,0,0.,12.0,0.,12.0,0.,12.0,0.,12.0
1979-07-01 10:06:54.470 ,5,0,0.,12.0,0.,12.0,0.,12.0,0.,12.0
1979-07-01 10:07:06.470 ,5,0,0.,12.0,0.,12.0,0.,12.0,0.,12.0
1979-07-01 10:07:18.470 ,4,0,0.,12.0,0.,12.0,0.,12.0,0.,12.0
1979-07-01 10:07:30.470 ,4,0,0.,12.0,0.,12.0,0.,12.0,0.,12.0
1979-07-01 10:07:42.470 ,4,0,0.,12.0,0.,12.0,0.,12.0,0.,12.0
1979-07-01 10:07:54.470 ,4,0,0.,12.0,0.,12.0,0.,12.0,0.,12.0
1979-07-01 10:08:06.470 ,3,0,0.,12.0,0.,12.0,0.,12.0,0.,12.0
1979-07-01 10:08:18.470 ,3,0,0.,12.0,0.,12.0,0.,12.0,0.,12.0
1979-07-01 10:08:30.470 ,3,0,0.,12.0,0.,12.0,0.,12.0,0.,12.0
1979-07-01 10:08:42.470 ,3,0,0.,12.0,0.,12.0,0.,12.0,0.,12.0
1979-07-01 10:08:54.470 ,2,0,0.,12.0,0.,12.0,0.,12.0,0.,12.0
1979-07-01 10:09:06.470 ,2,0,0.,12.0,0.,12.0,0.,12.0,0.,12.0
1979-07-01 10:09:18.470 ,2,0,0.,12.0,0.,12.0,0.,12.0,0.,12.0
1979-07-01 10:09:30.470 ,2,0,0.,12.0,0.,12.0,0.,12.0,0.,12.0
1979-07-01 10:09:42.470 ,1,0,0.,12.0,0.,12.0,0.,12.0,0.,12.0
1979-07-01 10:09:54.470 ,1,0,0.,12.0,0.,12.0,0.,12.0,0.,12.0
1979-07-01 10:10:06.470 ,1,0,0.,12.0,0.,12.0,0.,12.0,0.,12.0
1979-07-01 10:10:18.470 ,1,0,0.,12.0,0.,12.0,0.,12.0,0.,12.0
1979-07-01 10:10:30.470 ,0,0,0.,12.0,0.,12.0,0.,12.0,0.,12.0
1979-07-01 10:10:42.470 ,0,0,0.,12.0,0.,12.0,0.,12.0,0.,12.0
1979-07-01 10:10:54.470 ,0,0,0.,12.0,0.,12.0,0.,12.0,0.,12.0
1979-07-01 10:11:06.470 ,0,0,0.,12.0,0.,12.0,0.,12.0,0.,12.0
1979-07-01 10:11:18.470 ,0,0,0.,12.0,0.,12.0,0.,12.0,0.,12.0
1979-07-01 10:11:30.470 ,0,0,0.,12.0,0.,12.0,0.,12.0,0.,12.0
1979-07-01 10:11:42.470 ,0,0,0.,12.0,0.,12.0,0.,12.0,0.,12.0
1979-07-01 10:11:54.470 ,0,0,0.,12.0,0.,12.0,0.,12.0,0.,12.0
1979-07-01 10:12:06.470 ,1,0,0.,12.0,0.,12.0,0.,12.0,0.,12.0
1979-07-01 10:12:18.470 ,1,0,0.,12.0,0.,12.0,0.,12.0,0.,12.0
1979-07-01 10:12:30.470 ,1,0,0.,12.0,0.,12.0,0.,12.0,0.,12.0
1979-07-01 10:12:42.470 ,1,0,0.,12.0,0.,12.0,0.,12.0,0.,12.0
1979-07-01 10:12:54.470 ,2,0,0.,12.0,0.,12.0,0.,12.0,0.,12.0
1979-07-01 10:13:06.470 ,2,0,0.,12.0,0.,12.0,0.,12.0,0.,12.0
1979-07-01 10:13:18.470 ,2,0,0.,12.0,0.,12.0,0.,12.0,0.,12.0
1979-07-01 10:13:30.470 ,2,0,0.,12.0,0.,12.0,0.,12.0,0.,12.0
1979-07-01 10:13:42.470 ,3,0,0.,12.0,0.,12.0,0.,12.0,0.,12.0
1979-07-01 10:13:54.470 ,3,0,0.,12.0,0.,12.0,0.,12.0,0.,12.0
1979-07-01 10:14:06.470 ,3,0,0.,12.0,0.,12.0,0.,12.0,0.,12.0
1979-07-01 10:14:18.470 ,3,0,0.,12.0,0.,12.0,0.,12.0,0.,12.0
1979-07-01 10:14:30.470 ,4,0,0.,12.0,0.,12.0,0.,12.0,0.,12.0
1979-07-01 10:14:42.470 ,4,0,0.,12.0,0.,12.0,0.,12.0,0.,12.0
1979-07-01 10:14:54.470 ,4,0,0.,12.0,0.,12.0,0.,12.0,0.,12.0
1979-07-01 10:15:06.470 ,4,0,0.,12.0,0.,12.0,0.,12.0,0.,12.0
1979-07-01 10:15:18.470 ,5,0,0.,12.0,0.,12.0,0.,12.0,0.,12.0
1979-07-01 10:15:30.470 ,5,0,0.,12.0,0.,12.0,0.,12.0,0.,12.0
1979-07-01 10:15:42.470 ,5,0,0.,12.0,0.,12.0,0.,12.0,0.,12.0
1979-07-01 10:15:54.470 ,5,0,0.,12.0,0.,12.0,0.,12.0,0.,12.0
1979-07-01 10:16:06.470 ,6,0,0.,12.0,0.,12.0,0.,12.0,0.,12.0
1979-07-01 10:16:18.470 ,6,0,0.,12.0,0.,12.0,0.,12.0,0.,12.0
1979-07-01 10:16:30.470 ,6,0,0.,12.0,0.,12.0,0.,12.0,0.,12.0
1979-07-01 10:16:42.470 ,6,0,0.,12.0,0.,12.0,0.,12.0,0.,12.0
1979-07-01 10:16:54.470 ,7,0,0.,12.0,0.,12.0,0.,12.0,0.,12.0
1979-07-01 10:17:06.470 ,7,0,0.,12.0,0.,12.0,0.,12.0,0.,12.0
1979-07-01 10:17:18.470 ,7,0,0.,12.0,0.,12.0,0.,12.0,0.,12.0
1979-07-01 10:17:30.470 ,7,0,0.,12.0,0.,12.0,0.,12.0,0.,12.0
1979-07-01 10:17:42.470 ,7,0,0.,12.0,0.,12.0,0.,12.0,0.,12.0
1979-07-01 10:17:54.470 ,7,0,0.,12.0,0.,12.0,0.,12.0,0.,12.0
1979-07-01 10:18:06.470 ,7,0,0.,12.0,0.,12.0,0.,12.0,0.,12.0
1979-07-01 10:18:18.470 ,7,0,0.,12.0,0.,12.0,0.,12.0,0.,12.0